TimePST,TemperatureF,Dew PointF,Humidity,Sea Level PressureIn,VisibilityMPH,Wind Direction,Wind SpeedMPH,Gust SpeedMPH,PrecipitationIn,Events,Conditions,WindDirDegrees,DateUTC
12:07 AM,44.6,42.8,93,30.08,1.0,Calm,Calm,-,N/A,,Mist,0,2012-11-27 08:07:00
12:10 AM,44.6,42.8,93,30.08,2.0,Calm,Calm,-,N/A,,Partly Cloudy,0,2012-11-27 08:10:00
12:14 AM,44.6,42.8,93,30.08,0.8,Calm,Calm,-,N/A,,Mist,0,2012-11-27 08:14:00
12:23 AM,44.6,42.8,93,30.08,0.2,Calm,Calm,-,N/A,Fog,Fog,0,2012-11-27 08:23:00
12:35 AM,44.6,42.8,93,30.08,1.0,Calm,Calm,-,N/A,,Mist,0,2012-11-27 08:35:00
12:43 AM,44.6,42.8,93,30.08,0.8,Calm,Calm,-,N/A,,Mist,0,2012-11-27 08:43:00
12:45 AM,44.6,42.8,93,30.08,1.0,Calm,Calm,-,N/A,,Clear,0,2012-11-27 08:45:00
12:53 AM,44.1,42.1,93,30.08,0.5,Calm,Calm,-,N/A,Fog,Fog,0,2012-11-27 08:53:00
12:55 AM,44.6,42.8,93,30.08,0.2,Calm,Calm,-,N/A,Fog,Fog,0,2012-11-27 08:55:00
1:13 AM,44.6,42.8,93,30.07,0.5,Calm,Calm,-,N/A,Fog,Fog,0,2012-11-27 09:13:00
1:23 AM,42.8,42.8,100,30.07,0.2,Calm,Calm,-,N/A,Fog,Fog,0,2012-11-27 09:23:00
1:42 AM,42.8,41.0,93,30.07,0.2,Calm,Calm,-,N/A,Fog,Fog,0,2012-11-27 09:42:00
1:53 AM,43.0,41.0,93,30.08,0.2,Calm,Calm,-,N/A,Fog,Fog,0,2012-11-27 09:53:00
2:14 AM,42.8,41.0,93,30.08,1.0,Calm,Calm,-,N/A,,Mist,0,2012-11-27 10:14:00
2:23 AM,44.6,41.0,87,30.07,2.5,Calm,Calm,-,N/A,,Scattered Clouds,0,2012-11-27 10:23:00
2:35 AM,42.8,39.2,87,30.07,1.2,Calm,Calm,-,N/A,,Partly Cloudy,0,2012-11-27 10:35:00
2:40 AM,42.8,41.0,93,30.07,0.8,Calm,Calm,-,N/A,,Mist,0,2012-11-27 10:40:00
2:44 AM,42.8,41.0,93,30.07,0.2,Calm,Calm,-,N/A,Fog,Fog,0,2012-11-27 10:44:00
2:53 AM,42.1,39.9,92,30.07,0.2,Calm,Calm,-,N/A,Fog,Fog,0,2012-11-27 10:53:00
3:53 AM,43.0,41.0,93,30.07,0.2,Calm,Calm,-,N/A,Fog,Fog,0,2012-11-27 11:53:00
4:53 AM,42.1,41.0,96,30.08,0.2,Calm,Calm,-,N/A,Fog,Fog,0,2012-11-27 12:53:00
5:53 AM,41.0,39.9,96,30.09,0.2,Calm,Calm,-,N/A,Fog,Fog,0,2012-11-27 13:53:00
6:12 AM,39.2,39.2,100,30.09,0.5,Calm,Calm,-,N/A,Fog,Fog,0,2012-11-27 14:12:00
6:40 AM,41.0,39.2,93,30.11,2.0,SSW,3.5,-,N/A,,Mostly Cloudy,200,2012-11-27 14:40:00
6:48 AM,42.8,39.2,87,30.11,0.8,SSW,3.5,-,N/A,,Mist,210,2012-11-27 14:48:00
6:49 AM,42.1,39.9,92,30.11,0.5,Calm,Calm,-,N/A,Fog,Fog,0,2012-11-27 14:49:00
6:52 AM,42.8,41.0,93,30.11,0.2,Calm,Calm,-,N/A,Fog,Fog,0,2012-11-27 14:52:00
7:38 AM,42.8,42.8,100,30.12,0.2,Calm,Calm,-,N/A,Fog,Fog,0,2012-11-27 15:38:00
7:53 AM,44.1,42.1,93,30.12,0.5,Calm,Calm,-,N/A,,Overcast,0,2012-11-27 15:53:00
8:05 AM,44.6,42.8,93,30.12,1.2,Calm,Calm,-,N/A,,Mostly Cloudy,0,2012-11-27 16:05:00
8:16 AM,44.6,42.8,93,30.11,2.0,Calm,Calm,-,N/A,,Overcast,0,2012-11-27 16:16:00
8:53 AM,46.9,45.0,93,30.12,2.0,Calm,Calm,-,N/A,,Overcast,0,2012-11-27 16:53:00
9:00 AM,46.4,44.6,93,30.12,2.5,Calm,Calm,-,N/A,,Clear,0,2012-11-27 17:00:00
9:14 AM,48.2,46.4,93,30.12,1.8,NE,3.5,-,N/A,,Partly Cloudy,40,2012-11-27 17:14:00
9:24 AM,48.2,46.4,93,30.12,0.8,Calm,Calm,-,N/A,,Mostly Cloudy,0,2012-11-27 17:24:00
9:49 AM,48.2,46.4,93,30.14,1.2,Calm,Calm,-,N/A,,Overcast,0,2012-11-27 17:49:00
9:53 AM,48.0,46.0,93,30.14,1.2,Calm,Calm,-,N/A,,Overcast,0,2012-11-27 17:53:00
10:53 AM,51.1,46.9,86,30.12,2.0,ENE,3.5,-,N/A,,Mostly Cloudy,70,2012-11-27 18:53:00
11:08 AM,53.6,48.2,82,30.12,3.0,Calm,Calm,-,N/A,,Haze,0,2012-11-27 19:08:00
11:53 AM,55.9,48.9,77,30.10,5.0,Calm,Calm,-,N/A,,Haze,0,2012-11-27 19:53:00
12:53 PM,57.9,48.0,70,30.08,6.0,Calm,Calm,-,N/A,,Haze,0,2012-11-27 20:53:00
1:53 PM,61.0,48.9,64,30.06,7.0,Calm,Calm,-,N/A,,Clear,0,2012-11-27 21:53:00
2:53 PM,61.0,48.0,62,30.05,10.0,Calm,Calm,-,N/A,,Clear,0,2012-11-27 22:53:00
3:53 PM,60.1,48.0,64,30.04,9.0,Calm,Calm,-,N/A,,Clear,0,2012-11-27 23:53:00
4:53 PM,57.9,46.9,67,30.04,6.0,Calm,Calm,-,N/A,,Haze,0,2012-11-28 00:53:00
5:53 PM,51.1,46.9,86,30.02,6.0,Calm,Calm,-,N/A,,Clear,0,2012-11-28 01:53:00
6:53 PM,51.1,46.9,86,30.03,5.0,SW,3.5,-,N/A,,Clear,230,2012-11-28 02:53:00
7:53 PM,51.1,46.9,86,30.02,5.0,Calm,Calm,-,N/A,,Clear,0,2012-11-28 03:53:00
8:53 PM,48.9,46.9,93,30.03,3.0,Calm,Calm,-,N/A,,Clear,0,2012-11-28 04:53:00
9:02 PM,48.2,46.4,93,30.03,2.0,Calm,Calm,-,N/A,,Clear,0,2012-11-28 05:02:00
9:11 PM,48.2,46.4,93,30.03,1.5,Calm,Calm,-,N/A,,Clear,0,2012-11-28 05:11:00
9:21 PM,48.2,44.6,87,30.03,0.8,Calm,Calm,-,N/A,,Clear,0,2012-11-28 05:21:00
9:28 PM,48.2,44.6,87,30.03,2.0,Calm,Calm,-,N/A,,Clear,0,2012-11-28 05:28:00
9:53 PM,48.0,45.0,89,30.03,1.8,Calm,Calm,-,N/A,,Clear,0,2012-11-28 05:53:00
10:01 PM,48.2,44.6,87,30.03,2.5,Calm,Calm,-,N/A,,Clear,0,2012-11-28 06:01:00
10:08 PM,48.2,46.4,93,30.03,3.0,Calm,Calm,-,N/A,,Clear,0,2012-11-28 06:08:00
10:15 PM,48.2,46.4,93,30.03,2.5,Calm,Calm,-,N/A,,Clear,0,2012-11-28 06:15:00
10:39 PM,48.2,46.4,93,30.05,3.0,Calm,Calm,-,N/A,,Clear,0,2012-11-28 06:39:00
10:53 PM,50.0,46.0,86,30.03,3.0,Calm,Calm,-,N/A,,Clear,0,2012-11-28 06:53:00
11:06 PM,50.0,46.4,87,30.03,2.5,Calm,Calm,-,N/A,,Clear,0,2012-11-28 07:06:00
11:15 PM,50.0,46.4,87,30.04,3.0,Calm,Calm,-,N/A,,Clear,0,2012-11-28 07:15:00
11:45 PM,50.0,46.4,87,30.04,2.5,Calm,Calm,-,N/A,,Clear,0,2012-11-28 07:45:00
11:53 PM,51.1,48.0,89,30.04,3.0,NE,3.5,-,N/A,,Clear,50,2012-11-28 07:53:00